User: anonymous
Location: Lake Runnemede Observatory
(43.4843°N, 72.3851°W)
Time: 19:26:34
(UTC-04:00)
Language:

SPOT 5 - Orbit

View from above orbital plane
View from above orbital plane
View from above satellite
View from above satellite

Ground track
Ground track

The orbit data is extracted from the following two-line orbital elements,

1 27421U 02021A   14203.44208275  .00000240  00000-0  13242-3 0  7633
2 27421 098.5594 265.4520 0001507 094.6605 357.2700 14.20101677633325
Epoch (UTC): 22 July 2014 10:36:35
Eccentricity: 0.0001507
inclination: 98.5594°
perigee height: 824 km
apogee height: 826 km
right ascension of ascending node: 265.4520°
argument of perigee: 94.6605°
revolutions per day: 14.20101677
mean anomaly at epoch: 357.2700°
orbit number at epoch: 63332

The dashed part of the orbit path shows where the satellite is in the earth's shadow,  

DLR